Lid_Strength_Index
-1 -1 -1 -1 -1 -1 -1 -1 -0 0 0 0 1 1 1 0 0 1 4 1 0 -1 -0 2 3 4 6 7 7 8 12 14 12 11 11 8 9 8 6 7 6 5 6 4 3
-1 -1 -1 -1 -1 -2 -1 -1 -1 -0 0 1 1 1 1 1 2 3 -0 -2 -2 -1 2 4 5 5 8 8 8 10 13 11 9 10 10 8 8 8 8 8 8 7 4 3 3
-0 -1 -1 -1 -1 -1 -2 -1 -1 -1 -0 1 1 1 1 1 6 6 -1 -2 -2 -1 1 2 3 5 9 9 10 9 12 10 8 8 8 8 8 8 8 10 7 8 6 4 4
-1 -0 -1 -1 -1 -1 -1 -1 -1 -1 -1 -0 1 1 1 2 11 3 -0 -2 -2 -1 1 3 5 8 10 11 9 11 9 8 7 7 8 8 7 8 8 7 5 5 4 4 4
-2 -1 -1 -1 -1 -1 -2 -2 -1 -1 -2 -1 -1 0 3 7 7 2 0 -1 -0 1 3 4 6 7 10 10 10 10 10 7 7 7 8 7 8 9 8 7 5 4 4 5 5
-2 -2 -1 -1 -1 -1 -1 -2 -2 -1 -2 -1 -1 -1 4 12 4 2 2 2 1 2 3 4 5 5 8 10 11 9 9 8 7 8 7 8 9 8 8 8 6 5 5 5 5
-2 -2 -1 -1 -1 -1 -1 -2 -2 -1 -2 -1 -1 1 4 8 4 2 2 3 2 2 5 3 3 6 7 9 7 8 11 9 9 8 9 7 10 9 8 8 8 8 7 6 6
-2 -2 -2 -1 -1 -1 -1 -1 -1 -1 -2 -2 -1 2 8 2 3 3 3 3 2 2 2 3 3 5 7 7 9 11 11 13 10 8 8 8 13 9 9 8 8 8 8 7 6
-2 -2 -2 -1 -1 -1 -1 -1 -1 -1 -2 -2 2 5 9 1 3 2 2 4 2 2 2 2 4 8 8 11 13 13 16 15 12 9 9 10 12 9 10 9 9 8 8 7 7
-2 -2 -2 -2 -1 -1 -1 -1 -1 -1 -0 1 2 6 7 6 3 2 2 3 4 4 5 6 9 12 12 14 17 16 15 15 15 13 11 11 12 10 10 11 11 10 9 9 8
-2 -2 -2 -1 -1 -1 -1 1 4 5 3 6 6 6 5 4 3 4 2 3 4 6 10 9 12 15 11 11 13 14 16 17 15 13 13 13 13 11 10 12 12 11 10 10 9
-2 -2 -2 -2 -1 -1 0 4 4 3 8 4 5 5 4 4 6 5 2 7 8 11 9 11 14 11 9 9 11 14 16 17 15 12 13 14 14 12 12 12 11 11 11 10 10
-1 -2 -2 -1 -1 0 2 3 2 1 8 7 5 6 5 4 7 7 4 6 9 11 11 12 11 8 9 11 12 12 13 14 14 12 13 14 16 14 12 11 10 10 9 9 9
-1 -2 -2 -1 2 2 4 2 1 1 12 11 8 6 5 5 8 5 3 6 9 11 10 11 8 9 11 12 11 14 10 10 12 13 17 14 21 16 14 13 12 10 10 9 9
-1 -2 -1 -1 2 4 3 2 1 3 20 9 9 2 4 7 8 8 3 6 10 10 10 12 11 11 12 11 10 13 9 11 12 14 16 15 17 17 14 14 12 11 10 9 9
-1 -1 -1 0 1 2 1 2 5 13 19 13 8 9 9 8 8 7 7 5 6 9 10 10 8 9 10 9 9 9 11 11 12 14 19 15 16 20 16 13 13 11 10 10 10
-1 -1 -0 1 4 0 2 5 14 17 10 13 12 10 10 11 10 9 10 11 12 15 14 11 11 9 9 11 10 10 13 18 20 19 20 16 16 17 14 12 11 11 10 9 9
-1 -1 -0 0 -0 2 4 10 17 14 13 9 10 10 12 10 11 10 11 13 10 12 14 16 17 11 8 10 12 12 13 17 22 21 20 16 18 16 11 10 9 10 10 9 10
-1 2 3 1 -0 1 7 14 15 13 12 12 11 13 13 11 11 11 12 12 10 10 14 15 15 11 9 9 9 13 15 12 17 22 21 19 17 14 12 11 10 11 10 10 10
2 4 3 1 1 3 10 13 12 10 11 11 14 12 15 13 13 13 13 10 11 9 10 12 16 11 10 9 10 11 10 16 18 24 25 20 20 18 15 12 11 10 10 9 10
5 8 3 2 2 8 13 13 11 9 9 12 13 13 13 13 12 13 13 10 9 9 9 11 13 14 11 13 13 12 14 13 13 17 23 24 21 16 14 13 13 11 10 9 9
8 9 2 3 12 13 17 15 9 9 9 10 10 12 12 12 13 13 13 11 8 8 11 10 12 16 14 11 10 10 12 12 17 19 17 18 18 14 14 12 12 12 11 9 9
9 8 3 5 17 14 11 13 10 11 10 11 12 10 11 12 14 12 11 8 8 8 10 9 13 17 16 13 12 12 11 11 12 13 16 18 18 12 12 12 12 13 12 10 10
10 11 8 7 10 14 15 17 15 9 9 10 12 10 12 12 11 12 12 9 8 8 7 8 12 14 16 15 13 14 13 11 12 17 16 16 15 13 13 12 13 12 11 12 10
11 12 13 12 11 16 13 13 14 16 10 9 11 11 12 15 13 13 12 11 9 8 8 9 15 13 12 13 12 12 13 13 14 13 16 14 14 12 11 12 10 9 10 11 10
12 13 14 19 12 12 15 16 13 15 11 12 12 10 11 14 12 14 12 12 13 10 10 9 14 13 14 12 12 14 12 12 12 12 12 12 13 10 11 10 11 10 10 10 10
8 8 11 13 14 15 15 14 11 10 11 10 11 11 11 10 9 9 8 10 10 12 12 12 13 14 17 13 14 16 13 12 12 11 11 14 11 8 9 9 9 8 8 7 7